Location: Unspecified
(0.0000°N, 0.0000°E)
Time: 23:57:51
(UTC+00:00)

A-11 Canister half - Pass Details

Date: 23 July 2024
Orbit: 1524 x 1684 km, 47.3° (Epoch: 14 May)

Event Time Altitude Azimuth Distance (km) Brightness Sun altitude
Exits shadow 02:26:29 28° 7° (N) 2,756 10.4 -50.4°
Drops below altitude 10° 02:30:52 10° 22° (NNE) 3,915 11.5 -49.4°
Sets 02:34:10 0° 28° (NNE) 4,887 12.2 -48.7°
